Regional Weather Roundup
Issued by NWS

Home | Current Version | Previous Version | Text Only | Print | Product List | Glossary Off
Versions: 1 2 3 4 5 6 7 8 9 10 11 12 13 14 15 16 17 18 19 20 21 22 23 24 25 26 27 28 29 30 31 32 33 34 35 36 37 38 39 40 41 42 43 44 45 46 47 48 49 50

000
ASUS45 KABQ 302110
RWRNM
WEATHER ROUNDUP FOR NEW MEXICO
NATIONAL WEATHER SERVICE ALBUQUERQUE NM
300 PM MDT THU OCT 30 2014

NOTE: "FAIR" MEANS FEW OR NO CLOUDS BELOW 12,000 FEET AGL WITH NO
       SIGNIFICANT WEATHER OR OBSTRUCTIONS TO VISION.

      THIS PRODUCT IS RELEASED AS TWO VERSIONS.  ONE VERSION NEAR
      THE TOP OF THE HOUR CONTAINING PRELIMINARY DATA FROM ALBUQUERQUE
      AND OTHER STATIONS.  A FINAL VERSION WITH ADDITIONAL DATA IS
      ISSUED ABOUT 10 MINUTES AFTER THE HOUR.

NMZ501-503-504-510>518-302200-
NORTHWEST PLATEAU/NORTHCENTRAL MOUNTAINS

CITY           SKY/WX    TMP DP  RH WIND       PRES   REMARKS
FARMINGTON     SUNNY     67  18  15 SW7       30.26F
LOS ALAMOS     SUNNY     65  13  13 S9        30.36F
SANTA FE       SUNNY     70  12  10 S14G20    30.31F
TAOS           SUNNY     66  18  15 W5        30.34S
ANGEL FIRE     FAIR      64  10  12 S12G18    30.39S

$$
NMZ402-403-502-505>509-302200-
WESTCENTRAL MOUNTAINS/SOUTHWEST MOUNTAINS

CITY           SKY/WX    TMP DP  RH WIND       PRES   REMARKS
GALLUP         FAIR      73  14  10 VRB6      30.29F
GRANTS         FAIR      72  10   9 SE12      30.32F
SILVER CITY    FAIR      75  28  17 SE7       30.25F

$$
NMZ407-409-411-412-302200-
SOUTHERN DESERTS

CITY           SKY/WX    TMP DP  RH WIND       PRES   REMARKS
LORDSBURG      FAIR      79  32  18 E14       30.17F
DEMING         FAIR      79  34  19 E6        30.18F
LAS CRUCES     FAIR      78  33  19 E8        30.20F
HOLLOMAN AFB   SUNNY     80  27  14 CALM      30.17F
T OR C         FAIR      76  18  11 NE9       30.22F

$$
NMZ519>523-302200-
CENTRAL VALLEYS/CENTRAL HIGHLANDS

CITY           SKY/WX    TMP DP  RH WIND       PRES   REMARKS
ALBUQUERQUE    SUNNY     71  16  12 W7        30.28F
DOUBLE EAGLE   SUNNY     70  18  13 SE6       30.31F
MORIARTY ARPT  FAIR      70  19  14 SE7       30.34F
CLINES CORNERS SUNNY     63  20  19 SE8       30.36F
BELEN          FAIR      73  21  14 SE6       30.27F
SOCORRO        FAIR      75  20  13 CALM      30.24F

$$
NMZ524>526-539-540-302200-
SOUTHCENTRAL MOUNTAINS

CITY           SKY/WX    TMP DP  RH WIND       PRES   REMARKS
RUIDOSO        SUNNY     64  27  24 SE12      30.37F

$$
NMZ527>531-302200-
NORTHEAST HIGHLANDS/NORTHEAST PLAINS

CITY           SKY/WX    TMP DP  RH WIND       PRES   REMARKS
LAS VEGAS      SUNNY     65  20  17 VRB6      30.36F
RATON          SUNNY     65  21  18 SE7       30.32F
CLAYTON        SUNNY     67  23  19 VRB7      30.31F

$$
NMZ532>537-302200-
EASTCENTRAL PLAINS

CITY           SKY/WX    TMP DP  RH WIND       PRES   REMARKS
TUCUMCARI      SUNNY     73  23  15 NE14G22   30.26F
CANNON AFB     SUNNY     72  27  18 NE20      30.25F
CLOVIS AIRPORT SUNNY     72  27  18 NE20G29   30.28S

$$
NMZ028-029-538-302200-
SOUTHEAST PLAINS

CITY           SKY/WX    TMP DP  RH WIND       PRES   REMARKS
ROSWELL        SUNNY     79  33  19 N13       30.20F
CARLSBAD       SUNNY     77  42  28 NW14      30.17F
HOBBS          SUNNY     75  43  31 N18G24    30.18S


$$



USA.gov is the U.S. government's official web portal to all federal, state and local government web resources and services.